Regional Weather Roundup
Issued by NWS

Home | Current Version | Previous Version | Graphics & Text | Print | Product List | Glossary On
Versions: 1 2 3 4 5 6 7 8 9 10 11 12 13 14 15 16 17 18 19 20 21 22 23 24 25 26 27 28 29 30 31 32 33 34 35 36 37 38 39 40 41 42 43 44 45 46 47 48 49 50
000
ASUS43 KBIS 170602
RWRND

NORTH DAKOTA REGIONAL WEATHER ROUNDUP
NATIONAL WEATHER SERVICE BISMARCK ND
1200 AM CST TUE JAN 17 2017

NOTE: "FAIR" INDICATES FEW OR NO CLOUDS BELOW 12,000 FEET WITH NO
SIGNIFICANT WEATHER AND/OR OBSTRUCTIONS TO VISIBILITY.


NDZ001>003-009>011-017-170700-
NORTHWEST NORTH DAKOTA

CITY           SKY/WX    TMP DP  RH WIND       PRES   REMARKS
WILLISTON      FAIR       9   6  88 S5        30.01F WCI   1
6HR MIN TEMP:   7; 6HR MAX TEMP:  17;

MINOT          FAIR      18  13  80 SW16      29.99F WCI   3
$$

NDZ018>021-031>035-040>046-170700-
SOUTHWEST NORTH DAKOTA

CITY           SKY/WX    TMP DP  RH WIND       PRES   REMARKS
BISMARCK       FAIR      10   6  84 W8        30.06F WCI  -2
6HR MIN TEMP:   6; 6HR MAX TEMP:  19;

DICKINSON      FAIR      12   7  80 SW8       30.00F WCI   0
GARRISON         N/A      8   5  87 CALM      30.01F
6HR MIN TEMP:   7; 6HR MAX TEMP:  18;

HETTINGER ARPT CLOUDY     8   4  83 W3        30.05F
$$

NDZ004>008-012>016-024-026-027-054-170700-
NORTHEAST NORTH DAKOTA

CITY           SKY/WX    TMP DP  RH WIND       PRES   REMARKS
GRAND FORKS    CLOUDY     2  -2  83 SW5       30.01F WCI  -8
GRND FRKS AFB  CLEAR      5   1  85 SW3       29.99F
DEVILS LAKE    FAIR       9   6  88 W14       30.00R WCI  -7
$$

NDZ022-023-025-028>030-036>039-047>053-170700-
SOUTHEAST NORTH DAKOTA

CITY           SKY/WX    TMP DP  RH WIND       PRES   REMARKS
FARGO          CLOUDY     5   2  87 W8        30.04R WCI  -8
6HR MIN TEMP:   5; 6HR MAX TEMP:  16;

JAMESTOWN      FAIR      11   9  92 W8        29.99F WCI  -1
$$





USA.gov is the U.S. government's official web portal to all federal, state and local government web resources and services.